Weather observations for the past three days for
Sherman/Denison, Grayson County Airport
Imperial (Metric)
Date Time (cdt) Wind (mph) Vis. (mi.) Weather Sky Cond. Temperature (ºF) Relative Humidity Wind Chill (°F) Heat Index (°F) Pressure Precipitation (in)
Air Dwpt 6 hour altimeter (in) sea level (mb) 1 hr 3 hr 6 hr
Max. Min.
09 07:50 Calm 9.00 Partly Cloudy SCT007 68 66.2 94% 29.87 0.0
09 07:00 E 6 9.00 Fair CLR 66.2 64.4 94% 29.84 0.0
09 06:35 E 6 9.00 Fair CLR 64.8 63.9 97% 29.84 0.0
09 06:15 E 3 10.00 Partly Cloudy SCT026 65.3 64.2 96% 29.83 0.0
09 05:55 E 5 10.00 Overcast FEW018 OVC026 65.8 64.4 95% 29.82 0.0
09 05:35 E 6 10.00 Mostly Cloudy BKN026 65.8 64.2 95% 29.82 0.0
09 05:15 E 6 10.00 Partly Cloudy SCT027 65.5 64.2 96% 29.81 0.0
09 04:55 E 6 10.00 Fair CLR 65.7 64 95% 29.81 0.0
09 04:35 E 5 10.00 Fair CLR 65.8 64.2 95% 29.81 0.0
09 04:15 E 5 10.00 A Few Clouds FEW023 65.3 64 96% 29.81 0.0
09 03:55 NE 6 10.00 Fair CLR 65.8 64 94% 29.82 0.0
09 03:35 NE 6 10.00 Fair CLR 66 64.2 94% 29.81 0.0
09 03:15 E 5 10.00 Fair CLR 67.3 64.4 91% 29.81 0.0
09 02:55 E 8 10.00 Partly Cloudy FEW020 SCT180 69.6 65.1 86% 29.82 0.0
09 02:35 SE 8 10.00 Mostly Cloudy FEW021 BKN180 69.3 64.9 86% 29.82 0.0
09 02:15 E 3 10.00 A Few Clouds FEW026 69.1 64.6 86% 29.83 0.0
09 01:55 SE 8 10.00 Mostly Cloudy BKN021 BKN033 69.1 64.2 85% 29.84 0.0
09 01:35 SE 10 10.00 Overcast BKN021 OVC029 69.1 64 84% 29.85 0.0
09 01:15 SE 10 10.00 Overcast OVC021 69.4 64 83% 29.85 0.0
09 00:55 E 8 10.00 Overcast OVC018 69.8 64.2 77 67.3 83% 29.86 0.0
09 00:35 N 6 10.00 Mostly Cloudy BKN018 69.3 64.2 84% 29.88 0.0
09 00:15 NE 10 8.00 Partly Cloudy FEW020 SCT170 68.2 63.9 86% 29.84 0.0
08 23:55 SW 12 8.00 A Few Clouds FEW230 67.8 63.5 86% 29.82 0.0
08 23:35 SW 12 8.00 Partly Cloudy FEW240 SCT280 67.3 63.5 88% 29.83 0.0
08 23:15 SW 8 3.00 A Few Clouds with Haze FEW280 67.8 63.3 86% 29.85 0.0
08 22:55 S 8 10.00 Fair CLR 68 63.1 85% 29.83 0.0
08 22:35 S 5 10.00 Fair CLR 69.3 63.3 81% 29.83 0.0
08 22:15 SE 6 10.00 Thunderstorm in Vicinity FEW240 70.5 63.5 79% 29.82 0.0
08 21:55 SE 7 9.00 Mostly Cloudy BKN230 70.9 63.7 78% 29.82 0.0
08 21:35 S 9 10.00 Partly Cloudy FEW038 SCT230 71.8 63.7 76% 29.82 0.0
08 21:15 S 12 10.00 Mostly Cloudy SCT030 SCT038 BKN065 BKN085 72.5 63.7 74% 29.82 0.0
08 20:55 SE 7 10.00 Partly Cloudy FEW029 SCT065 72.3 63.9 75% 29.82 0.0
08 20:35 SE 9 10.00 Mostly Cloudy BKN030 73 63.9 73% 29.8 0.0
08 20:15 S 7 10.00 Overcast OVC029 73.8 63.9 71% 29.8 0.0
08 19:55 S 9 10.00 Overcast OVC031 75 63.3 67% 77 29.79 0.0
08 19:35 S 10 10.00 Mostly Cloudy BKN032 75.6 63.3 66% 77 29.79 0.0
08 19:15 S 14 10.00 Fair CLR 76.5 63.3 64% 78 29.78 0.0
08 18:50 S 13 10.00 Fair CLR 77 64.4 65% 79 29.77 0.0
08 17:50 S 13 10.00 Fair CLR 78.8 62.6 58% 80 29.78 0.0
08 16:50 S 8 10.00 Fair CLR 80.6 62.6 54% 82 29.79 0.0
08 14:50 S 13 10.00 Fair CLR 78.8 59 51% 80 29.84 0.0
08 13:50 SE 5 10.00 A Few Clouds FEW055 77 59 54% 79 29.86 0.0
08 11:50 S 12 10.00 Mostly Cloudy BKN065 71.6 59 65% 29.94 0.0
08 10:50 S 6 10.00 Partly Cloudy SCT080 69.8 57.2 64% 29.96 0.0
08 09:50 S 3 10.00 Mostly Cloudy BKN090 62.6 57.2 83% 29.97 0.0
08 08:50 S 5 10.00 Mostly Cloudy FEW090 BKN110 60.8 55.4 83% 29.98 0.0
08 07:50 S 7 10.00 Mostly Cloudy BKN100 60.8 57.2 88% 29.98 0.0
08 07:00 S 7 7.00 Partly Cloudy SCT100 59 55.4 88% 29.98 0.0
08 06:35 S 6 8.00 A Few Clouds FEW100 56.8 54 90% 29.98 0.0
08 06:15 S 9 7.00 Partly Cloudy SCT100 57.6 54.1 88% 29.97 0.0
08 05:55 S 7 9.00 Partly Cloudy SCT110 56.1 53.6 91% 29.96 0.0
08 05:35 S 7 9.00 Partly Cloudy SCT110 57.9 54 87% 29.96 0.0
08 05:15 S 7 8.00 A Few Clouds FEW110 56.3 53.4 90% 29.95 0.0
08 04:55 S 8 9.00 Partly Cloudy SCT130 56.7 53.6 90% 29.95 0.0
08 04:35 S 9 8.00 Fair CLR 56.1 52.9 89% 29.96 0.0
08 04:15 SE 8 9.00 Fair CLR 58.6 53.8 84% 29.95 0.0
08 03:55 S 7 9.00 A Few Clouds FEW190 57 52.9 86% 29.97 0.0
08 03:35 S 8 9.00 Mostly Cloudy BKN190 56.3 52.7 88% 29.97 0.0
08 03:15 S 6 8.00 Partly Cloudy FEW140 SCT180 56.1 52.3 87% 29.98 0.0
08 02:55 S 8 8.00 Fair CLR 55.2 52 89% 29.99 0.0
08 02:35 S 5 9.00 Fair CLR 57.2 52.2 83% 29.98 0.0
08 02:15 S 5 8.00 Fair CLR 56.3 52.3 87% 29.98 0.0
08 01:55 S 7 8.00 Partly Cloudy SCT140 56.5 52.9 88% 30 0.0
08 01:35 S 6 9.00 Mostly Cloudy BKN140 56.7 53.1 88% 30 0.0
08 01:15 S 7 9.00 Partly Cloudy SCT140 58.3 53.2 83% 30 0.0
08 00:55 S 7 9.00 Mostly Cloudy BKN130 59.9 53.4 71.1 59.2 79% 30.01 0.0
08 00:35 S 7 9.00 Overcast OVC130 60.4 53.6 78% 30.01 0.0
08 00:15 S 9 9.00 Partly Cloudy SCT130 59.4 53.6 81% 30.01 0.0
07 23:55 S 7 9.00 A Few Clouds FEW130 60.4 54.1 80% 30.01 0.0
07 23:35 S 7 9.00 A Few Clouds FEW130 60.4 54.3 80% 30.01 0.0
07 23:15 S 7 8.00 Fair CLR 61.2 54.1 78% 30.01 0.0
07 22:55 S 5 9.00 Fair CLR 61.2 53.6 76% 30.01 0.0
07 22:35 S 8 10.00 Fair CLR 62.1 53.2 73% 30.01 0.0
07 22:15 SE 8 10.00 Fair CLR 62.6 51.8 68% 30 0.0
07 21:55 SE 9 10.00 Fair CLR 63.5 48.9 59% 30 0.0
07 21:35 SE 7 9.00 Fair CLR 63.7 48.6 58% 29.99 0.0
07 21:15 SE 7 9.00 Fair CLR 64 49.3 59% 29.99 0.0
07 20:55 SE 7 10.00 Fair CLR 64.8 49.6 58% 29.98 0.0
07 20:35 SE 6 10.00 Fair CLR 65.5 49.3 56% 29.97 0.0
07 20:15 SE 6 9.00 Fair CLR 66.2 49.1 54% 29.97 0.0
07 19:55 SE 5 9.00 A Few Clouds FEW310 67.5 48.4 51% 29.98 0.0
07 19:35 SE 3 9.00 Fair CLR 68.9 46.4 45% 29.98 0.0
07 19:15 E 3 9.00 Fair CLR 68.9 47.1 46% 29.98 0.0
07 18:50 Calm 10.00 Fair CLR 71.6 48.2 44% 29.98 0.0
07 17:50 Calm 10.00 Fair CLR 71.6 44.6 38% 29.99 0.0
07 16:50 Calm 10.00 Fair CLR 71.6 44.6 38% 29.99 0.0
07 15:50 NE 5 9.00 Fair CLR 69.8 46.4 43% 30.01 0.0
07 14:50 Vrbl 3 9.00 Fair CLR 69.8 46.4 43% 30.04 0.0
07 13:50 Vrbl 6 10.00 Fair CLR 68 46.4 46% 30.06 0.0
07 12:50 N 5 10.00 Fair CLR 64.4 44.6 49% 30.13 0.0
07 11:50 N 6 10.00 Fair CLR 62.6 44.6 52% 30.14 0.0
07 10:50 NW 5 10.00 Fair CLR 60.8 50 68% 30.15 0.0
07 08:50 NW 5 10.00 Fair CLR 59 50 72% 30.15 0.0
07 07:50 NW 5 10.00 Fair CLR 51.8 48.2 88% 30.15 0.0
07 06:50 SW 3 10.00 Fair CLR 44.6 44.6 100% 30.13 0.0
07 06:35 SW 5 8.00 Fair CLR 45.1 44.6 98% 43 30.12 0.0
07 06:15 SW 3 8.00 Fair CLR 45.9 45.3 98% 30.11 0.0
07 05:55 W 3 8.00 A Few Clouds FEW340 46.6 46 98% 30.11 0.0
07 05:35 Calm 9.00 Fair CLR 46.9 46.4 98% 30.1 0.0
07 05:15 S 3 9.00 Fair CLR 47.7 47.3 99% 30.09 0.0
07 04:55 Calm 9.00 Fair CLR 48.4 47.8 98% 30.09 0.0
07 04:35 Calm 9.00 Fair CLR 48.9 48.4 98% 30.09 0.0
07 04:15 Calm 9.00 Fair CLR 48.6 47.8 97% 30.09 0.0
07 03:55 Calm 9.00 Fair CLR 49.5 48.4 96% 30.08 0.0
07 03:35 NE 3 9.00 Fair CLR 49.1 48 96% 30.07 0.0
07 03:15 N 5 9.00 Fair CLR 49.3 47.7 94% 48 30.08 0.0
07 02:55 Calm 9.00 Fair CLR 51.6 48.6 89% 30.08 0.0
07 02:35 Calm 9.00 Fair CLR 50 48.6 95% 30.09 0.0
07 02:15 Calm 9.00 Fair CLR 49.3 47.7 94% 30.09 0.0
07 01:55 NE 3 9.00 Fair CLR 50.4 48.6 94% 30.09 0.0
07 01:35 N 3 9.00 Fair CLR 49.6 48.2 95% 30.08 0.0
07 01:15 N 5 9.00 Fair CLR 49.1 47.7 95% 48 30.07 0.0
07 00:55 NE 3 10.00 Fair CLR 49.6 48 59.7 49.6 94% 30.06 0.0
07 00:35 E 5 10.00 Fair CLR 51.3 48.6 91% 30.06 0.0
07 00:15 E 5 10.00 Fair CLR 51.4 48.7 91% 30.07 0.0
06 23:55 E 3 9.00 Fair CLR 52.3 49.3 89% 30.08 0.0
06 23:35 E 3 9.00 Fair CLR 52.2 49.1 89% 30.07 0.0
06 23:15 E 5 9.00 A Few Clouds FEW350 53.1 49.1 87% 30.07 0.0
06 22:55 NE 5 9.00 Fair CLR 53.2 49.1 86% 30.07 0.0
06 22:35 E 3 10.00 A Few Clouds FEW310 54.3 49.1 83% 30.07 0.0
06 22:15 NE 7 10.00 Partly Cloudy SCT036 55.4 49.3 80% 30.07 0.0
06 21:55 NE 8 10.00 Overcast OVC034 57.7 49.5 74% 30.06 0.0
06 21:35 NE 6 10.00 Overcast OVC033 57.7 49.5 74% 30.05 0.0
06 21:15 NE 6 10.00 Overcast OVC033 57.6 49.3 74% 30.05 0.0
06 20:55 NE 8 10.00 Overcast OVC032 57.7 48.9 73% 30.03 0.0
06 20:35 NE 9 10.00 Overcast OVC030 57.7 48.7 72% 30.02 0.0
06 20:15 N 8 9.00 Overcast OVC028 58.1 48.9 72% 30.01 0.0
06 19:55 N 12 9.00 Overcast OVC028 58.5 49.1 71% 30.01 0.0
06 19:35 N 12 9.00 Overcast OVC028 59 49.3 70% 30 0.0
06 19:15 N 13 10.00 Overcast OVC029 59.4 49.5 70% 29.99 0.0
06 18:50 N 14 10.00 Overcast OVC026 59 50 72% 29.99 0.0
06 17:50 N 12 10.00 Overcast OVC030 60.8 50 68% 29.97 0.0
06 16:50 N 12 10.00 Overcast OVC027 62.6 51.8 68% 29.97 0.0
06 15:50 N 9 10.00 Overcast OVC026 62.6 51.8 68% 29.98 0.0
Date Time (cdt) Wind (mph) Vis. (mi.) Weather Sky Cond. Air Dwpt Max. Min. Relative Humidity Wind Chill (°F) Heat Index (°F) altimeter (in) sea level (mb) 1 hr 3 hr 6 hr
6 hour
Temperature (ºF) Pressure Precipitation (in)